Time,TemperatureF,DewpointF,PressureIn,WindDirection,WindDirectionDegrees,WindSpeedMPH,WindSpeedGustMPH,Humidity,HourlyPrecipIn,Conditions,Clouds,dailyrainin,SoftwareType,DateUTC
2013-09-07 00:01:00,63.0,59.8,29.83,ENE,68,0.0,0.0,89,0.00,,,0.00,WUHU216HW,2013-09-07 07:01:00,
2013-09-07 00:06:00,62.8,59.6,29.83,East,90,0.4,0.4,89,0.00,,,0.00,WUHU216HW,2013-09-07 07:06:00,
2013-09-07 00:11:00,63.0,59.8,29.83,ESE,113,0.6,0.9,89,0.00,,,0.00,WUHU216HW,2013-09-07 07:11:00,
2013-09-07 00:16:00,62.8,59.6,29.83,North,0,0.0,0.9,89,0.00,,,0.00,WUHU216HW,2013-09-07 07:16:00,
2013-09-07 00:21:00,62.8,59.6,29.83,East,90,0.4,0.4,89,0.00,,,0.00,WUHU216HW,2013-09-07 07:21:00,
2013-09-07 00:26:00,62.8,59.6,29.83,East,90,0.2,0.4,89,0.00,,,0.00,WUHU216HW,2013-09-07 07:26:00,
2013-09-07 00:31:00,62.8,59.6,29.83,East,90,0.0,0.4,89,0.00,,,0.00,WUHU216HW,2013-09-07 07:31:00,
2013-09-07 00:36:00,62.8,59.6,29.83,East,90,0.2,0.7,89,0.00,,,0.00,WUHU216HW,2013-09-07 07:36:00,
2013-09-07 00:41:00,62.8,59.6,29.83,ESE,113,0.0,0.7,89,0.00,,,0.00,WUHU216HW,2013-09-07 07:41:00,
2013-09-07 00:46:00,62.8,59.6,29.83,ESE,107,0.8,1.3,89,0.00,,,0.00,WUHU216HW,2013-09-07 07:46:00,
2013-09-07 00:51:00,62.8,59.6,29.83,East,90,1.7,1.8,89,0.00,,,0.00,WUHU216HW,2013-09-07 07:51:00,
2013-09-07 00:56:00,62.8,59.6,29.84,East,90,0.2,1.8,89,0.00,,,0.00,WUHU216HW,2013-09-07 07:56:00,
2013-09-07 01:01:00,63.0,59.8,29.84,East,90,0.8,3.6,89,0.00,,,0.00,WUHU216HW,2013-09-07 08:01:00,
2013-09-07 01:06:00,63.0,59.8,29.84,ESE,113,1.7,3.6,89,0.00,,,0.00,WUHU216HW,2013-09-07 08:06:00,
2013-09-07 01:11:00,63.0,59.8,29.84,ESE,113,2.0,2.9,89,0.00,,,0.00,WUHU216HW,2013-09-07 08:11:00,
2013-09-07 01:16:00,63.0,59.8,29.84,ESE,113,1.6,2.0,89,0.00,,,0.00,WUHU216HW,2013-09-07 08:16:00,
2013-09-07 01:21:00,63.0,59.8,29.84,ENE,68,1.1,2.0,89,0.00,,,0.00,WUHU216HW,2013-09-07 08:21:00,
2013-09-07 01:26:00,63.0,59.8,29.84,ESE,113,2.5,2.5,89,0.00,,,0.00,WUHU216HW,2013-09-07 08:26:00,
2013-09-07 01:31:00,63.0,59.8,29.84,East,90,0.7,2.5,89,0.00,,,0.00,WUHU216HW,2013-09-07 08:31:00,
2013-09-07 01:36:00,63.0,59.8,29.83,SE,128,1.7,3.1,89,0.00,,,0.00,WUHU216HW,2013-09-07 08:36:00,
2013-09-07 01:41:00,63.0,59.8,29.83,ESE,110,1.0,3.1,89,0.00,,,0.00,WUHU216HW,2013-09-07 08:41:00,
2013-09-07 01:46:00,63.0,59.8,29.83,East,90,2.0,2.2,89,0.00,,,0.00,WUHU216HW,2013-09-07 08:46:00,
2013-09-07 01:51:00,63.0,59.8,29.83,East,90,2.5,2.7,89,0.00,,,0.00,WUHU216HW,2013-09-07 08:51:00,
2013-09-07 01:56:00,63.0,59.8,29.83,ESE,113,1.7,2.9,89,0.00,,,0.00,WUHU216HW,2013-09-07 08:56:00,
2013-09-07 02:01:00,63.0,59.8,29.83,North,0,1.1,2.9,89,0.00,,,0.00,WUHU216HW,2013-09-07 09:01:00,
2013-09-07 02:06:00,63.0,59.8,29.83,NE,40,2.2,4.9,89,0.00,,,0.00,WUHU216HW,2013-09-07 09:06:00,
2013-09-07 02:11:00,63.2,59.6,29.83,ESE,113,1.1,4.9,88,0.00,,,0.00,WUHU216HW,2013-09-07 09:11:00,
2013-09-07 02:16:00,63.0,59.4,29.83,ESE,113,2.2,3.6,88,0.00,,,0.00,WUHU216HW,2013-09-07 09:16:00,
2013-09-07 02:21:00,63.2,59.6,29.83,East,90,1.6,2.7,88,0.00,,,0.00,WUHU216HW,2013-09-07 09:21:00,
2013-09-07 02:26:00,63.0,59.4,29.83,East,94,3.1,5.1,88,0.00,,,0.00,WUHU216HW,2013-09-07 09:26:00,
2013-09-07 02:31:00,63.0,59.4,29.82,East,90,2.5,5.1,88,0.00,,,0.00,WUHU216HW,2013-09-07 09:31:00,
2013-09-07 02:36:00,63.0,59.1,29.83,East,90,0.7,2.5,87,0.00,,,0.00,WUHU216HW,2013-09-07 09:36:00,
2013-09-07 02:41:00,63.0,59.1,29.83,East,82,0.6,2.2,87,0.00,,,0.00,WUHU216HW,2013-09-07 09:41:00,
2013-09-07 02:46:00,63.0,59.1,29.82,East,96,1.4,2.2,87,0.00,,,0.00,WUHU216HW,2013-09-07 09:46:00,
2013-09-07 02:51:00,63.0,59.1,29.82,East,90,3.1,3.1,87,0.00,,,0.00,WUHU216HW,2013-09-07 09:51:00,
2013-09-07 02:56:00,63.0,59.1,29.82,East,90,0.0,3.1,87,0.00,,,0.00,WUHU216HW,2013-09-07 09:56:00,
2013-09-07 03:01:00,63.0,59.1,29.82,ESE,113,1.6,1.6,87,0.00,,,0.00,WUHU216HW,2013-09-07 10:01:00,
2013-09-07 03:06:00,63.0,59.1,29.82,NNW,338,0.4,1.6,87,0.00,,,0.00,WUHU216HW,2013-09-07 10:06:00,
2013-09-07 03:11:00,63.0,59.1,29.82,ESE,105,1.0,1.3,87,0.00,,,0.00,WUHU216HW,2013-09-07 10:11:00,
2013-09-07 03:16:00,63.0,59.1,29.82,East,90,0.4,1.3,87,0.00,,,0.00,WUHU216HW,2013-09-07 10:16:00,
2013-09-07 03:21:00,63.0,59.4,29.82,ESE,113,0.4,1.6,88,0.00,,,0.00,WUHU216HW,2013-09-07 10:21:00,
2013-09-07 03:26:00,63.0,59.4,29.82,ESE,113,1.8,1.8,88,0.00,,,0.00,WUHU216HW,2013-09-07 10:26:00,
2013-09-07 03:31:00,63.0,59.4,29.82,East,101,1.7,1.8,88,0.00,,,0.00,WUHU216HW,2013-09-07 10:31:00,
2013-09-07 03:36:00,63.0,59.4,29.82,East,98,2.3,3.4,88,0.00,,,0.00,WUHU216HW,2013-09-07 10:36:00,
2013-09-07 03:41:00,62.8,59.2,29.82,East,90,0.7,3.4,88,0.00,,,0.00,WUHU216HW,2013-09-07 10:41:00,
2013-09-07 03:46:00,62.8,59.2,29.82,ESE,106,0.7,2.2,88,0.00,,,0.00,WUHU216HW,2013-09-07 10:46:00,
2013-09-07 03:51:00,62.8,59.2,29.82,ESE,121,0.6,3.1,88,0.00,,,0.00,WUHU216HW,2013-09-07 10:51:00,
2013-09-07 03:56:00,62.8,59.2,29.82,East,96,1.9,3.1,88,0.00,,,0.00,WUHU216HW,2013-09-07 10:56:00,
2013-09-07 04:01:00,62.8,59.2,29.82,East,90,0.9,2.7,88,0.00,,,0.00,WUHU216HW,2013-09-07 11:01:00,
2013-09-07 04:06:00,62.8,59.2,29.82,East,90,0.4,2.2,88,0.00,,,0.00,WUHU216HW,2013-09-07 11:06:00,
2013-09-07 04:11:00,62.8,59.2,29.82,East,90,0.7,2.2,88,0.00,,,0.00,WUHU216HW,2013-09-07 11:11:00,
2013-09-07 04:16:00,62.8,59.2,29.82,East,93,0.8,2.7,88,0.00,,,0.00,WUHU216HW,2013-09-07 11:16:00,
2013-09-07 04:21:00,62.8,59.2,29.82,ESE,113,2.0,2.7,88,0.00,,,0.00,WUHU216HW,2013-09-07 11:21:00,
2013-09-07 04:26:00,62.8,59.2,29.82,East,90,1.3,2.0,88,0.00,,,0.00,WUHU216HW,2013-09-07 11:26:00,
2013-09-07 04:31:00,62.8,59.2,29.82,ESE,113,1.8,1.8,88,0.00,,,0.00,WUHU216HW,2013-09-07 11:31:00,
2013-09-07 04:36:00,62.8,59.2,29.82,East,90,2.4,3.6,88,0.00,,,0.00,WUHU216HW,2013-09-07 11:36:00,
2013-09-07 04:41:00,62.8,59.2,29.82,SE,135,0.8,3.6,88,0.00,,,0.00,WUHU216HW,2013-09-07 11:41:00,
2013-09-07 04:46:00,62.8,59.2,29.82,ESE,113,1.6,1.6,88,0.00,,,0.00,WUHU216HW,2013-09-07 11:46:00,
2013-09-07 04:51:00,62.6,59.0,29.82,ESE,113,0.7,1.6,88,0.00,,,0.00,WUHU216HW,2013-09-07 11:51:00,
2013-09-07 04:56:00,62.6,59.0,29.82,ESE,113,0.0,1.1,88,0.00,,,0.00,WUHU216HW,2013-09-07 11:56:00,
2013-09-07 05:01:00,62.6,59.0,29.82,ENE,66,0.8,1.3,88,0.00,,,0.00,WUHU216HW,2013-09-07 12:01:00,
2013-09-07 05:06:00,62.6,59.0,29.82,ESE,113,1.5,2.0,88,0.00,,,0.00,WUHU216HW,2013-09-07 12:06:00,
2013-09-07 05:12:00,62.6,59.0,29.82,SE,135,2.5,2.5,88,0.00,,,0.00,WUHU216HW,2013-09-07 12:12:00,
2013-09-07 05:17:00,62.6,59.0,29.82,ESE,113,0.0,2.5,88,0.00,,,0.00,WUHU216HW,2013-09-07 12:17:00,
2013-09-07 05:22:00,62.6,59.0,29.82,ESE,113,1.8,1.8,88,0.00,,,0.00,WUHU216HW,2013-09-07 12:22:00,
2013-09-07 05:27:00,62.6,59.0,29.82,East,90,0.4,1.8,88,0.00,,,0.00,WUHU216HW,2013-09-07 12:27:00,
2013-09-07 05:32:00,62.6,59.0,29.82,East,90,0.2,1.3,88,0.00,,,0.00,WUHU216HW,2013-09-07 12:32:00,
2013-09-07 05:37:00,62.6,59.0,29.82,ENE,68,1.8,1.8,88,0.00,,,0.00,WUHU216HW,2013-09-07 12:37:00,
2013-09-07 05:42:00,62.6,59.0,29.82,East,90,0.9,1.8,88,0.00,,,0.00,WUHU216HW,2013-09-07 12:42:00,
2013-09-07 05:47:00,62.6,59.0,29.82,SE,125,0.8,2.5,88,0.00,,,0.00,WUHU216HW,2013-09-07 12:47:00,
2013-09-07 05:52:00,62.6,59.0,29.82,SE,135,1.8,2.5,88,0.00,,,0.00,WUHU216HW,2013-09-07 12:52:00,
2013-09-07 05:57:00,62.6,59.0,29.82,NNW,338,0.0,1.8,88,0.00,,,0.00,WUHU216HW,2013-09-07 12:57:00,
2013-09-07 06:02:00,62.6,59.0,29.82,ESE,113,0.0,1.8,88,0.00,,,0.00,WUHU216HW,2013-09-07 13:02:00,
2013-09-07 06:07:00,62.5,58.9,29.82,ESE,113,0.2,1.8,88,0.00,,,0.00,WUHU216HW,2013-09-07 13:07:00,
2013-09-07 06:12:00,62.5,58.9,29.82,ESE,113,0.0,0.4,88,0.00,,,0.00,WUHU216HW,2013-09-07 13:12:00,
2013-09-07 06:17:00,62.5,59.2,29.82,ESE,113,0.2,1.8,89,0.00,,,0.00,WUHU216HW,2013-09-07 13:17:00,
2013-09-07 06:22:00,62.5,59.2,29.82,East,90,0.9,1.8,89,0.00,,,0.00,WUHU216HW,2013-09-07 13:22:00,
2013-09-07 06:27:00,62.3,59.0,29.82,East,90,0.7,1.8,89,0.00,,,0.00,WUHU216HW,2013-09-07 13:27:00,
2013-09-07 06:32:00,62.3,59.0,29.82,ENE,68,0.0,0.9,89,0.00,,,0.00,WUHU216HW,2013-09-07 13:32:00,
2013-09-07 06:37:00,62.3,59.0,29.82,ENE,68,0.0,0.4,89,0.00,,,0.00,WUHU216HW,2013-09-07 13:37:00,
2013-09-07 06:42:00,62.3,59.0,29.82,ENE,68,0.0,0.0,89,0.00,,,0.00,WUHU216HW,2013-09-07 13:42:00,
2013-09-07 06:47:00,62.1,58.9,29.82,ENE,68,0.2,0.2,89,0.00,,,0.00,WUHU216HW,2013-09-07 13:47:00,
2013-09-07 06:52:00,62.1,58.9,29.82,ENE,68,0.0,0.2,89,0.00,,,0.00,WUHU216HW,2013-09-07 13:52:00,
2013-09-07 06:57:00,62.1,58.9,29.82,ENE,68,0.0,0.0,89,0.00,,,0.00,WUHU216HW,2013-09-07 13:57:00,
2013-09-07 07:02:00,62.1,59.2,29.82,ENE,68,0.0,0.0,90,0.00,,,0.00,WUHU216HW,2013-09-07 14:02:00,
2013-09-07 07:07:00,62.1,59.2,29.82,ENE,68,0.2,0.2,90,0.00,,,0.00,WUHU216HW,2013-09-07 14:07:00,
2013-09-07 07:12:00,62.1,59.2,29.82,NNE,23,0.0,0.2,90,0.00,,,0.00,WUHU216HW,2013-09-07 14:12:00,
2013-09-07 07:17:00,62.1,59.2,29.83,North,0,0.4,0.4,90,0.00,,,0.00,WUHU216HW,2013-09-07 14:17:00,
2013-09-07 07:22:00,62.1,59.2,29.82,ESE,113,0.4,0.9,90,0.00,,,0.00,WUHU216HW,2013-09-07 14:22:00,
2013-09-07 07:27:00,62.1,59.2,29.82,ESE,113,0.7,0.9,90,0.00,,,0.00,WUHU216HW,2013-09-07 14:27:00,
2013-09-07 07:32:00,62.3,59.4,29.82,ESE,113,0.0,0.7,90,0.00,,,0.00,WUHU216HW,2013-09-07 14:32:00,
2013-09-07 07:37:00,62.3,59.4,29.83,ESE,113,0.0,0.2,90,0.00,,,0.00,WUHU216HW,2013-09-07 14:37:00,
2013-09-07 07:42:00,62.3,59.4,29.83,ESE,113,0.2,0.2,90,0.00,,,0.00,WUHU216HW,2013-09-07 14:42:00,
2013-09-07 07:47:00,62.3,59.4,29.83,ESE,113,0.0,0.2,90,0.00,,,0.00,WUHU216HW,2013-09-07 14:47:00,
2013-09-07 07:52:00,62.3,59.4,29.83,ESE,113,0.0,0.0,90,0.00,,,0.00,WUHU216HW,2013-09-07 14:52:00,
2013-09-07 07:57:00,62.3,59.4,29.83,ESE,113,0.7,0.7,90,0.00,,,0.00,WUHU216HW,2013-09-07 14:57:00,
2013-09-07 08:02:00,62.5,59.6,29.83,ESE,113,0.0,0.7,90,0.00,,,0.00,WUHU216HW,2013-09-07 15:02:00,
2013-09-07 08:07:00,62.5,59.6,29.83,ESE,113,0.0,0.7,90,0.00,,,0.00,WUHU216HW,2013-09-07 15:07:00,
2013-09-07 08:12:00,62.5,59.6,29.83,North,0,0.0,0.7,90,0.00,,,0.00,WUHU216HW,2013-09-07 15:12:00,
2013-09-07 08:17:00,62.5,59.6,29.83,NNE,23,0.2,0.4,90,0.00,,,0.00,WUHU216HW,2013-09-07 15:17:00,
2013-09-07 08:22:00,62.5,59.6,29.83,ESE,113,0.0,0.4,90,0.00,,,0.00,WUHU216HW,2013-09-07 15:22:00,
2013-09-07 08:27:00,62.6,59.8,29.83,ESE,113,0.0,0.4,90,0.00,,,0.00,WUHU216HW,2013-09-07 15:27:00,
2013-09-07 08:32:00,62.6,59.8,29.83,ESE,113,1.1,1.3,90,0.00,,,0.00,WUHU216HW,2013-09-07 15:32:00,
2013-09-07 08:37:00,62.6,59.8,29.83,ESE,113,0.2,1.3,90,0.00,,,0.00,WUHU216HW,2013-09-07 15:37:00,
2013-09-07 08:42:00,62.6,59.8,29.84,ESE,113,0.7,0.7,90,0.00,,,0.00,WUHU216HW,2013-09-07 15:42:00,
2013-09-07 08:47:00,62.8,59.9,29.83,ESE,113,0.4,1.1,90,0.00,,,0.00,WUHU216HW,2013-09-07 15:47:00,
2013-09-07 08:52:00,62.8,59.9,29.83,ESE,113,0.0,1.1,90,0.00,,,0.00,WUHU216HW,2013-09-07 15:52:00,
2013-09-07 08:57:00,63.0,60.1,29.84,ESE,113,0.0,0.4,90,0.00,,,0.00,WUHU216HW,2013-09-07 15:57:00,
2013-09-07 09:02:00,63.2,60.3,29.84,ESE,113,0.0,0.0,90,0.00,,,0.00,WUHU216HW,2013-09-07 16:02:00,
2013-09-07 09:07:00,63.4,60.5,29.84,ESE,113,0.4,0.4,90,0.00,,,0.00,WUHU216HW,2013-09-07 16:07:00,
2013-09-07 09:12:00,63.7,60.8,29.84,East,90,0.0,0.4,90,0.00,,,0.00,WUHU216HW,2013-09-07 16:12:00,
2013-09-07 09:17:00,64.1,61.2,29.84,SE,127,1.9,2.5,90,0.00,,,0.00,WUHU216HW,2013-09-07 16:17:00,
2013-09-07 09:22:00,64.3,61.4,29.84,SE,135,1.6,2.5,90,0.00,,,0.00,WUHU216HW,2013-09-07 16:22:00,
2013-09-07 09:27:00,64.4,61.6,29.83,ESE,113,1.5,3.1,90,0.00,,,0.00,WUHU216HW,2013-09-07 16:27:00,
2013-09-07 09:32:00,64.8,61.6,29.84,ESE,113,2.3,3.1,89,0.00,,,0.00,WUHU216HW,2013-09-07 16:32:00,
2013-09-07 09:37:00,64.8,61.6,29.84,ESE,118,0.8,2.7,89,0.00,,,0.00,WUHU216HW,2013-09-07 16:37:00,
2013-09-07 09:42:00,65.0,61.8,29.84,WNW,293,0.4,1.6,89,0.00,,,0.00,WUHU216HW,2013-09-07 16:42:00,
2013-09-07 09:47:00,65.2,61.6,29.84,ESE,113,0.8,1.3,88,0.00,,,0.00,WUHU216HW,2013-09-07 16:47:00,
2013-09-07 09:52:00,65.3,61.8,29.84,ESE,113,1.1,2.5,88,0.00,,,0.00,WUHU216HW,2013-09-07 16:52:00,
2013-09-07 09:57:00,65.7,62.4,29.84,East,90,0.0,2.5,89,0.00,,,0.00,WUHU216HW,2013-09-07 16:57:00,
2013-09-07 10:02:00,66.1,62.4,29.84,East,90,0.8,2.7,88,0.00,,,0.00,WUHU216HW,2013-09-07 17:02:00,
2013-09-07 10:07:00,66.6,62.9,29.84,ESE,104,0.8,2.7,88,0.00,,,0.00,WUHU216HW,2013-09-07 17:07:00,
2013-09-07 10:12:00,66.8,63.1,29.84,ESE,113,1.3,3.1,88,0.00,,,0.00,WUHU216HW,2013-09-07 17:12:00,
2013-09-07 10:17:00,67.0,62.9,29.84,ESE,113,1.1,3.1,87,0.00,,,0.00,WUHU216HW,2013-09-07 17:17:00,
2013-09-07 10:22:00,67.3,63.3,29.83,ESE,113,1.8,1.8,87,0.00,,,0.00,WUHU216HW,2013-09-07 17:22:00,
2013-09-07 10:27:00,67.9,63.6,29.83,ESE,113,0.2,1.8,86,0.00,,,0.00,WUHU216HW,2013-09-07 17:27:00,
2013-09-07 10:32:00,68.4,63.7,29.84,South,180,0.0,1.1,85,0.00,,,0.00,WUHU216HW,2013-09-07 17:32:00,
2013-09-07 10:37:00,68.8,64.1,29.83,SSE,160,0.6,1.1,85,0.00,,,0.00,WUHU216HW,2013-09-07 17:37:00,
2013-09-07 10:42:00,69.1,64.1,29.84,SE,135,0.4,1.1,84,0.00,,,0.00,WUHU216HW,2013-09-07 17:42:00,
2013-09-07 10:47:00,68.9,63.5,29.83,ESE,109,0.7,1.1,83,0.00,,,0.00,WUHU216HW,2013-09-07 17:47:00,
2013-09-07 10:52:00,68.8,63.1,29.83,East,90,0.0,1.3,82,0.00,,,0.00,WUHU216HW,2013-09-07 17:52:00,
2013-09-07 10:57:00,68.8,63.4,29.83,East,90,0.2,1.3,83,0.00,,,0.00,WUHU216HW,2013-09-07 17:57:00,
2013-09-07 11:02:00,68.8,63.4,29.83,SE,135,0.6,0.7,83,0.00,,,0.00,WUHU216HW,2013-09-07 18:02:00,
2013-09-07 11:07:00,68.6,62.9,29.84,ESE,113,1.1,1.8,82,0.00,,,0.00,WUHU216HW,2013-09-07 18:07:00,
2013-09-07 11:12:00,67.7,62.0,29.84,West,270,2.7,2.7,82,0.00,,,0.00,WUHU216HW,2013-09-07 18:12:00,
2013-09-07 11:17:00,67.0,61.3,29.84,WSW,241,0.6,2.7,82,0.00,,,0.00,WUHU216HW,2013-09-07 18:17:00,
2013-09-07 11:22:00,66.6,61.3,29.83,SSE,151,0.6,0.9,83,0.00,,,0.00,WUHU216HW,2013-09-07 18:22:00,
2013-09-07 11:27:00,66.6,61.6,29.83,West,277,0.8,1.3,84,0.00,,,0.00,WUHU216HW,2013-09-07 18:27:00,
2013-09-07 11:32:00,67.0,61.7,29.83,NW,317,1.4,1.6,83,0.00,,,0.00,WUHU216HW,2013-09-07 18:32:00,
2013-09-07 11:37:00,66.4,61.1,29.83,West,270,1.6,1.6,83,0.00,,,0.00,WUHU216HW,2013-09-07 18:37:00,
2013-09-07 11:42:00,66.8,61.7,29.83,WNW,293,1.3,1.6,84,0.00,,,0.00,WUHU216HW,2013-09-07 18:42:00,
2013-09-07 11:47:00,67.7,62.4,29.82,WSW,248,1.1,2.0,83,0.00,,,0.00,WUHU216HW,2013-09-07 18:47:00,
2013-09-07 11:52:00,68.4,62.7,29.82,West,270,2.7,2.7,82,0.00,,,0.00,WUHU216HW,2013-09-07 18:52:00,
2013-09-07 11:57:00,68.4,62.4,29.82,NNW,338,3.4,3.4,81,0.00,,,0.00,WUHU216HW,2013-09-07 18:57:00,
2013-09-07 12:02:00,68.4,62.1,29.82,WSW,248,3.4,3.4,80,0.00,,,0.00,WUHU216HW,2013-09-07 19:02:00,
2013-09-07 12:07:00,68.0,61.7,29.82,West,270,1.1,3.4,80,0.00,,,0.00,WUHU216HW,2013-09-07 19:07:00,
2013-09-07 12:12:00,68.0,62.1,29.82,North,0,0.9,1.6,81,0.00,,,0.00,WUHU216HW,2013-09-07 19:12:00,
2013-09-07 12:17:00,68.4,62.1,29.82,NNW,342,0.4,1.6,80,0.00,,,0.00,WUHU216HW,2013-09-07 19:17:00,
2013-09-07 12:22:00,68.9,62.6,29.81,SE,135,1.1,2.0,80,0.00,,,0.00,WUHU216HW,2013-09-07 19:22:00,
2013-09-07 12:27:00,69.5,62.6,29.81,WNW,286,0.6,2.5,79,0.00,,,0.00,WUHU216HW,2013-09-07 19:27:00,
2013-09-07 12:32:00,68.9,61.8,29.82,SSE,158,1.8,2.5,78,0.00,,,0.00,WUHU216HW,2013-09-07 19:32:00,
2013-09-07 12:37:00,68.0,61.0,29.81,NW,321,0.9,2.5,78,0.00,,,0.00,WUHU216HW,2013-09-07 19:37:00,
2013-09-07 12:42:00,67.7,61.0,29.81,SE,135,2.0,2.5,79,0.00,,,0.00,WUHU216HW,2013-09-07 19:42:00,
2013-09-07 12:47:00,67.9,61.6,29.82,East,90,2.0,2.5,80,0.00,,,0.00,WUHU216HW,2013-09-07 19:47:00,
2013-09-07 12:52:00,68.0,61.7,29.82,South,180,2.5,2.5,80,0.00,,,0.00,WUHU216HW,2013-09-07 19:52:00,
2013-09-07 12:57:00,68.4,61.7,29.82,SSE,158,3.4,3.8,79,0.00,,,0.00,WUHU216HW,2013-09-07 19:57:00,
2013-09-07 13:02:00,68.2,61.1,29.82,WSW,248,2.0,3.8,78,0.00,,,0.00,WUHU216HW,2013-09-07 20:02:00,
2013-09-07 13:07:00,68.4,61.3,29.82,SW,225,3.1,3.8,78,0.00,,,0.00,WUHU216HW,2013-09-07 20:07:00,
2013-09-07 13:12:00,68.2,61.1,29.82,SW,225,2.5,3.8,78,0.00,,,0.00,WUHU216HW,2013-09-07 20:12:00,
2013-09-07 13:17:00,68.4,61.7,29.82,WSW,239,2.0,3.4,79,0.00,,,0.00,WUHU216HW,2013-09-07 20:17:00,
2013-09-07 13:22:00,69.1,61.9,29.82,SSE,158,2.0,4.0,78,0.00,,,0.00,WUHU216HW,2013-09-07 20:22:00,
2013-09-07 13:27:00,69.3,61.7,29.82,ENE,68,1.8,4.0,77,0.00,,,0.00,WUHU216HW,2013-09-07 20:27:00,
2013-09-07 13:32:00,69.1,61.6,29.82,SSW,203,3.1,4.0,77,0.00,,,0.00,WUHU216HW,2013-09-07 20:32:00,
2013-09-07 13:37:00,68.9,61.0,29.82,South,180,2.5,3.4,76,0.00,,,0.00,WUHU216HW,2013-09-07 20:37:00,
2013-09-07 13:42:00,68.8,61.3,29.82,SSW,203,2.9,3.4,77,0.00,,,0.00,WUHU216HW,2013-09-07 20:42:00,
2013-09-07 13:47:00,69.3,61.7,29.82,SW,225,2.9,2.9,77,0.00,,,0.00,WUHU216HW,2013-09-07 20:47:00,
2013-09-07 13:52:00,69.5,61.6,29.82,SE,146,1.2,2.9,76,0.00,,,0.00,WUHU216HW,2013-09-07 20:52:00,
2013-09-07 13:57:00,69.8,61.5,29.81,South,180,3.6,3.6,75,0.00,,,0.00,WUHU216HW,2013-09-07 20:57:00,
2013-09-07 14:02:00,70.2,61.5,29.81,SSW,198,3.0,3.8,74,0.00,,,0.00,WUHU216HW,2013-09-07 21:02:00,
2013-09-07 14:07:00,70.2,61.5,29.81,WSW,255,3.5,4.5,74,0.00,,,0.00,WUHU216HW,2013-09-07 21:07:00,
2013-09-07 14:12:00,70.0,61.3,29.81,South,184,2.3,4.5,74,0.00,,,0.00,WUHU216HW,2013-09-07 21:12:00,
2013-09-07 14:17:00,70.4,61.3,29.81,SE,135,3.1,3.4,73,0.00,,,0.00,WUHU216HW,2013-09-07 21:17:00,
2013-09-07 14:22:00,70.2,61.5,29.81,West,270,3.1,3.1,74,0.00,,,0.00,WUHU216HW,2013-09-07 21:22:00,
2013-09-07 14:27:00,71.1,62.4,29.81,NW,315,2.9,3.1,74,0.00,,,0.00,WUHU216HW,2013-09-07 21:27:00,
2013-09-07 14:32:00,71.5,62.4,29.81,SW,225,5.6,5.6,73,0.00,,,0.00,WUHU216HW,2013-09-07 21:32:00,
2013-09-07 14:37:00,71.6,62.1,29.81,SW,215,3.0,5.6,72,0.00,,,0.00,WUHU216HW,2013-09-07 21:37:00,
2013-09-07 14:42:00,71.6,62.1,29.81,South,170,2.8,3.6,72,0.00,,,0.00,WUHU216HW,2013-09-07 21:42:00,
2013-09-07 14:47:00,71.6,62.1,29.81,South,180,2.7,3.4,72,0.00,,,0.00,WUHU216HW,2013-09-07 21:47:00,
2013-09-07 14:52:00,71.8,61.9,29.81,SW,225,3.4,3.4,71,0.00,,,0.00,WUHU216HW,2013-09-07 21:52:00,
2013-09-07 14:57:00,72.0,62.5,29.81,WSW,248,1.1,3.4,72,0.00,,,0.00,WUHU216HW,2013-09-07 21:57:00,
2013-09-07 15:02:00,72.0,62.5,29.80,WSW,248,1.3,3.4,72,0.00,,,0.00,WUHU216HW,2013-09-07 22:02:00,
2013-09-07 15:07:00,72.2,62.6,29.81,WSW,248,2.5,2.5,72,0.00,,,0.00,WUHU216HW,2013-09-07 22:07:00,
2013-09-07 15:12:00,72.7,63.2,29.80,SSE,158,2.5,2.5,72,0.00,,,0.00,WUHU216HW,2013-09-07 22:12:00,
2013-09-07 15:17:00,73.1,63.2,29.80,SSW,212,2.1,3.8,71,0.00,,,0.00,WUHU216HW,2013-09-07 22:17:00,
2013-09-07 15:22:00,73.3,63.0,29.80,SSW,203,3.2,3.8,70,0.00,,,0.00,WUHU216HW,2013-09-07 22:22:00,
2013-09-07 15:27:00,73.4,62.7,29.80,SSW,203,1.8,3.4,69,0.00,,,0.00,WUHU216HW,2013-09-07 22:27:00,
2013-09-07 15:32:00,73.6,62.9,29.80,South,180,3.6,3.6,69,0.00,,,0.00,WUHU216HW,2013-09-07 22:32:00,
2013-09-07 15:37:00,74.2,63.4,29.80,WSW,248,2.5,3.6,69,0.00,,,0.00,WUHU216HW,2013-09-07 22:37:00,
2013-09-07 15:42:00,74.3,63.1,29.80,SW,226,3.7,3.8,68,0.00,,,0.00,WUHU216HW,2013-09-07 22:42:00,
2013-09-07 15:47:00,74.2,62.9,29.80,South,185,2.8,3.8,68,0.00,,,0.00,WUHU216HW,2013-09-07 22:47:00,
2013-09-07 15:52:00,74.3,63.1,29.80,South,180,4.3,4.3,68,0.00,,,0.00,WUHU216HW,2013-09-07 22:52:00,
2013-09-07 15:57:00,73.8,62.2,29.80,SW,235,3.7,4.3,67,0.00,,,0.00,WUHU216HW,2013-09-07 22:57:00,
2013-09-07 16:02:00,73.8,63.1,29.80,WSW,237,3.7,4.0,69,0.00,,,0.00,WUHU216HW,2013-09-07 23:02:00,
2013-09-07 16:07:00,74.2,62.5,29.79,NNW,338,2.2,4.0,67,0.00,,,0.00,WUHU216HW,2013-09-07 23:07:00,
2013-09-07 16:12:00,74.5,63.3,29.79,SSW,203,1.6,3.6,68,0.00,,,0.00,WUHU216HW,2013-09-07 23:12:00,
2013-09-07 16:17:00,75.2,63.6,29.79,NW,315,4.0,4.0,67,0.00,,,0.00,WUHU216HW,2013-09-07 23:17:00,
2013-09-07 16:22:00,74.9,62.7,29.79,SSW,197,1.5,4.0,66,0.00,,,0.00,WUHU216HW,2013-09-07 23:22:00,
2013-09-07 16:27:00,75.2,63.1,29.79,ENE,68,1.3,3.4,66,0.00,,,0.00,WUHU216HW,2013-09-07 23:27:00,
2013-09-07 16:32:00,75.4,62.8,29.79,SE,137,1.1,3.1,65,0.00,,,0.00,WUHU216HW,2013-09-07 23:32:00,
2013-09-07 16:37:00,75.6,63.5,29.79,SSE,158,2.5,3.8,66,0.00,,,0.00,WUHU216HW,2013-09-07 23:37:00,
2013-09-07 16:42:00,75.4,62.8,29.79,SSE,166,2.3,3.8,65,0.00,,,0.00,WUHU216HW,2013-09-07 23:42:00,
2013-09-07 16:47:00,75.2,63.1,29.79,NW,315,2.0,3.4,66,0.00,,,0.00,WUHU216HW,2013-09-07 23:47:00,
2013-09-07 16:52:00,75.8,63.6,29.79,SSE,164,2.3,3.1,66,0.00,,,0.00,WUHU216HW,2013-09-07 23:52:00,
2013-09-07 16:57:00,76.0,63.7,29.79,WSW,248,2.7,2.9,66,0.00,,,0.00,WUHU216HW,2013-09-07 23:57:00,
2013-09-07 17:02:00,76.7,64.0,29.78,WSW,242,1.6,2.7,65,0.00,,,0.00,WUHU216HW,2013-09-08 00:02:00,
2013-09-07 17:07:00,77.0,63.9,29.78,SW,235,2.0,2.5,64,0.00,,,0.00,WUHU216HW,2013-09-08 00:07:00,
2013-09-07 17:12:00,77.0,63.5,29.79,West,270,2.2,2.5,63,0.00,,,0.00,WUHU216HW,2013-09-08 00:12:00,
2013-09-07 17:17:00,77.6,63.6,29.78,SW,225,2.3,3.4,62,0.00,,,0.00,WUHU216HW,2013-09-08 00:17:00,
2013-09-07 17:22:00,77.9,63.5,29.78,WNW,290,1.5,3.4,61,0.00,,,0.00,WUHU216HW,2013-09-08 00:22:00,
2013-09-07 17:27:00,78.1,62.6,29.78,NW,312,1.5,2.5,59,0.00,,,0.00,WUHU216HW,2013-09-08 00:27:00,
2013-09-07 17:32:00,78.7,63.7,29.78,WSW,248,1.8,2.7,60,0.00,,,0.00,WUHU216HW,2013-09-08 00:32:00,
2013-09-07 17:37:00,78.7,63.2,29.78,SSE,158,1.6,2.7,59,0.00,,,0.00,WUHU216HW,2013-09-08 00:37:00,
2013-09-07 17:42:00,79.2,63.2,29.78,SSW,203,3.1,3.1,58,0.00,,,0.00,WUHU216HW,2013-09-08 00:42:00,
2013-09-07 17:47:00,79.6,63.0,29.78,West,270,1.3,3.1,57,0.00,,,0.00,WUHU216HW,2013-09-08 00:47:00,
2013-09-07 17:52:00,79.6,63.6,29.78,SW,225,2.3,2.7,58,0.00,,,0.00,WUHU216HW,2013-09-08 00:52:00,
2013-09-07 17:57:00,79.7,63.6,29.78,SE,135,0.9,2.5,58,0.00,,,0.00,WUHU216HW,2013-09-08 00:57:00,
2013-09-07 18:02:00,80.5,63.8,29.78,South,180,2.0,2.5,57,0.00,,,0.00,WUHU216HW,2013-09-08 01:02:00,
2013-09-07 18:07:00,81.2,63.9,29.78,SSW,203,1.3,2.0,56,0.00,,,0.00,WUHU216HW,2013-09-08 01:07:00,
2013-09-07 18:12:00,81.4,64.1,29.78,SSW,203,1.8,1.8,56,0.00,,,0.00,WUHU216HW,2013-09-08 01:12:00,
2013-09-07 18:17:00,81.0,63.7,29.78,SW,225,1.8,1.8,56,0.00,,,0.00,WUHU216HW,2013-09-08 01:17:00,
2013-09-07 18:22:00,80.6,64.0,29.78,SSW,198,1.2,1.8,57,0.00,,,0.00,WUHU216HW,2013-09-08 01:22:00,
2013-09-07 18:27:00,78.7,61.7,29.78,SSW,200,1.5,1.8,56,0.00,,,0.00,WUHU216HW,2013-09-08 01:27:00,
2013-09-07 18:32:00,75.8,60.9,29.77,SSE,158,0.9,1.8,60,0.00,,,0.00,WUHU216HW,2013-09-08 01:32:00,
2013-09-07 18:37:00,74.0,60.6,29.77,SSE,158,1.8,1.8,63,0.00,,,0.00,WUHU216HW,2013-09-08 01:37:00,
2013-09-07 18:42:00,74.0,61.5,29.77,SW,234,0.9,1.8,65,0.00,,,0.00,WUHU216HW,2013-09-08 01:42:00,
2013-09-07 18:47:00,75.2,62.6,29.77,WSW,248,1.1,1.1,65,0.00,,,0.00,WUHU216HW,2013-09-08 01:47:00,
2013-09-07 18:52:00,76.5,63.4,29.77,South,175,0.4,1.3,64,0.00,,,0.00,WUHU216HW,2013-09-08 01:52:00,
2013-09-07 18:57:00,77.6,63.6,29.77,SE,135,0.0,1.3,62,0.00,,,0.00,WUHU216HW,2013-09-08 01:57:00,
2013-09-07 19:02:00,78.1,63.2,29.77,WNW,293,0.2,0.2,60,0.00,,,0.00,WUHU216HW,2013-09-08 02:02:00,
2013-09-07 19:07:00,77.6,62.6,29.77,SSW,193,0.8,1.1,60,0.00,,,0.00,WUHU216HW,2013-09-08 02:07:00,
2013-09-07 19:12:00,76.9,62.4,29.77,SSW,203,1.3,1.3,61,0.00,,,0.00,WUHU216HW,2013-09-08 02:12:00,
2013-09-07 19:17:00,75.2,61.4,29.77,SE,135,0.6,1.3,62,0.00,,,0.00,WUHU216HW,2013-09-08 02:17:00,
2013-09-07 19:22:00,73.3,60.3,29.77,SW,225,0.4,1.1,64,0.00,,,0.00,WUHU216HW,2013-09-08 02:22:00,
2013-09-07 19:27:00,72.4,60.3,29.77,SE,135,0.9,0.9,66,0.00,,,0.00,WUHU216HW,2013-09-08 02:27:00,
2013-09-07 19:32:00,72.2,60.2,29.77,SE,135,0.7,0.9,66,0.00,,,0.00,WUHU216HW,2013-09-08 02:32:00,
2013-09-07 19:37:00,71.8,60.3,29.77,SE,135,0.0,0.9,67,0.00,,,0.00,WUHU216HW,2013-09-08 02:37:00,
2013-09-07 19:42:00,71.3,59.3,29.78,WSW,248,0.4,0.4,66,0.00,,,0.00,WUHU216HW,2013-09-08 02:42:00,
2013-09-07 19:47:00,70.0,58.5,29.78,SSW,203,0.4,1.1,67,0.00,,,0.00,WUHU216HW,2013-09-08 02:47:00,
2013-09-07 19:52:00,68.8,58.1,29.77,SSW,203,0.9,1.1,69,0.00,,,0.00,WUHU216HW,2013-09-08 02:52:00,
2013-09-07 19:57:00,67.5,57.8,29.77,SSE,158,0.7,1.1,71,0.00,,,0.00,WUHU216HW,2013-09-08 02:57:00,
2013-09-07 20:02:00,66.6,57.7,29.78,SE,135,1.1,1.1,73,0.00,,,0.00,WUHU216HW,2013-09-08 03:02:00,
2013-09-07 20:07:00,66.2,57.7,29.78,SE,135,0.6,1.1,74,0.00,,,0.00,WUHU216HW,2013-09-08 03:07:00,
2013-09-07 20:12:00,66.2,57.7,29.78,SE,135,0.2,0.7,74,0.00,,,0.00,WUHU216HW,2013-09-08 03:12:00,
2013-09-07 20:17:00,66.2,57.7,29.78,SE,135,0.0,0.4,74,0.00,,,0.00,WUHU216HW,2013-09-08 03:17:00,
2013-09-07 20:22:00,66.1,57.9,29.78,SE,135,0.6,0.7,75,0.00,,,0.00,WUHU216HW,2013-09-08 03:22:00,
2013-09-07 20:27:00,65.9,57.7,29.78,SE,135,0.6,0.7,75,0.00,,,0.00,WUHU216HW,2013-09-08 03:27:00,
2013-09-07 20:32:00,65.7,57.9,29.79,SE,135,0.0,0.7,76,0.00,,,0.00,WUHU216HW,2013-09-08 03:32:00,
2013-09-07 20:37:00,65.2,57.4,29.79,SE,135,0.0,0.4,76,0.00,,,0.00,WUHU216HW,2013-09-08 03:37:00,
2013-09-07 20:42:00,65.2,57.8,29.79,SE,135,0.0,0.0,77,0.00,,,0.00,WUHU216HW,2013-09-08 03:42:00,
2013-09-07 20:47:00,65.0,57.6,29.79,SE,135,0.0,0.0,77,0.00,,,0.00,WUHU216HW,2013-09-08 03:47:00,
2013-09-07 20:52:00,64.8,57.4,29.79,SE,135,0.0,0.0,77,0.00,,,0.00,WUHU216HW,2013-09-08 03:52:00,
2013-09-07 20:57:00,64.4,57.1,29.79,SE,135,0.2,0.9,77,0.00,,,0.00,WUHU216HW,2013-09-08 03:57:00,
2013-09-07 21:01:00,64.3,57.2,29.79,SE,135,0.0,0.9,78,0.00,,,0.00,WUHU216HW,2013-09-08 04:01:00,
2013-09-07 21:06:00,64.1,57.1,29.79,SE,135,0.0,0.0,78,0.00,,,0.00,WUHU216HW,2013-09-08 04:06:00,
2013-09-07 21:11:00,63.7,57.1,29.79,SE,135,0.0,0.0,79,0.00,,,0.00,WUHU216HW,2013-09-08 04:11:00,
2013-09-07 21:16:00,63.5,56.9,29.79,SE,135,0.0,0.0,79,0.00,,,0.00,WUHU216HW,2013-09-08 04:16:00,
2013-09-07 21:21:00,63.4,56.3,29.79,SE,135,0.0,0.0,78,0.00,,,0.00,WUHU216HW,2013-09-08 04:21:00,
2013-09-07 21:26:00,63.0,56.3,29.79,SE,135,0.0,0.0,79,0.00,,,0.00,WUHU216HW,2013-09-08 04:26:00,
2013-09-07 21:31:00,62.8,56.2,29.79,SE,135,0.0,0.0,79,0.00,,,0.00,WUHU216HW,2013-09-08 04:31:00,
2013-09-07 21:36:00,62.6,56.0,29.79,SE,135,0.0,0.0,79,0.00,,,0.00,WUHU216HW,2013-09-08 04:36:00,
2013-09-07 21:41:00,62.5,55.8,29.79,SE,135,0.0,0.0,79,0.00,,,0.00,WUHU216HW,2013-09-08 04:41:00,
2013-09-07 21:46:00,62.3,55.6,29.79,SE,135,0.0,0.0,79,0.00,,,0.00,WUHU216HW,2013-09-08 04:46:00,
2013-09-07 21:51:00,61.9,55.7,29.79,SE,135,0.0,0.0,80,0.00,,,0.00,WUHU216HW,2013-09-08 04:51:00,
2013-09-07 21:56:00,61.6,55.4,29.79,North,0,0.0,0.0,80,0.00,,,0.00,WUHU216HW,2013-09-08 04:56:00,
2013-09-07 22:01:00,61.2,55.4,29.79,North,0,0.0,0.0,81,0.00,,,0.00,WUHU216HW,2013-09-08 05:01:00,
2013-09-07 22:06:00,61.0,55.2,29.80,North,0,0.0,0.0,81,0.00,,,0.00,WUHU216HW,2013-09-08 05:06:00,
2013-09-07 22:11:00,60.8,55.1,29.80,North,0,0.0,0.0,81,0.00,,,0.00,WUHU216HW,2013-09-08 05:11:00,
2013-09-07 22:16:00,60.5,55.0,29.80,North,0,0.0,0.0,82,0.00,,,0.00,WUHU216HW,2013-09-08 05:16:00,
2013-09-07 22:21:00,60.3,54.8,29.81,North,0,0.0,0.0,82,0.00,,,0.00,WUHU216HW,2013-09-08 05:21:00,
2013-09-07 22:26:00,60.1,54.6,29.81,North,0,0.0,0.0,82,0.00,,,0.00,WUHU216HW,2013-09-08 05:26:00,
2013-09-07 22:31:00,60.1,54.6,29.81,North,0,0.0,0.0,82,0.00,,,0.00,WUHU216HW,2013-09-08 05:31:00,
2013-09-07 22:36:00,59.9,54.5,29.81,North,0,0.0,0.0,82,0.00,,,0.00,WUHU216HW,2013-09-08 05:36:00,
2013-09-07 22:41:00,59.8,54.6,29.81,North,0,0.0,0.0,83,0.00,,,0.00,WUHU216HW,2013-09-08 05:41:00,
2013-09-07 22:46:00,59.8,54.6,29.81,North,0,0.0,0.0,83,0.00,,,0.00,WUHU216HW,2013-09-08 05:46:00,
2013-09-07 22:51:00,59.6,54.5,29.81,North,0,0.0,0.0,83,0.00,,,0.00,WUHU216HW,2013-09-08 05:51:00,
2013-09-07 22:56:00,59.6,54.5,29.81,North,0,0.0,0.0,83,0.00,,,0.00,WUHU216HW,2013-09-08 05:56:00,
2013-09-07 23:01:00,59.4,54.3,29.81,NNE,23,0.0,0.0,83,0.00,,,0.00,WUHU216HW,2013-09-08 06:01:00,
2013-09-07 23:06:00,59.4,54.3,29.81,NNE,23,0.0,0.0,83,0.00,,,0.00,WUHU216HW,2013-09-08 06:06:00,
2013-09-07 23:11:00,59.2,54.4,29.81,NNE,23,0.0,0.0,84,0.00,,,0.00,WUHU216HW,2013-09-08 06:11:00,
2013-09-07 23:16:00,59.0,54.2,29.81,NNE,23,0.0,0.0,84,0.00,,,0.00,WUHU216HW,2013-09-08 06:16:00,
2013-09-07 23:21:00,58.7,53.8,29.81,NNE,23,0.0,0.0,84,0.00,,,0.00,WUHU216HW,2013-09-08 06:21:00,
2013-09-07 23:26:00,58.7,53.8,29.81,NNE,23,0.0,0.0,84,0.00,,,0.00,WUHU216HW,2013-09-08 06:26:00,
2013-09-07 23:31:00,58.7,53.8,29.81,NNE,23,0.0,0.0,84,0.00,,,0.00,WUHU216HW,2013-09-08 06:31:00,
2013-09-07 23:36:00,58.5,53.6,29.81,NNE,23,0.0,0.0,84,0.00,,,0.00,WUHU216HW,2013-09-08 06:36:00,
2013-09-07 23:41:00,58.3,53.8,29.81,NNE,23,0.0,0.0,85,0.00,,,0.00,WUHU216HW,2013-09-08 06:41:00,
2013-09-07 23:46:00,58.3,53.8,29.81,NNE,23,0.0,0.0,85,0.00,,,0.00,WUHU216HW,2013-09-08 06:46:00,
2013-09-07 23:51:00,58.1,53.6,29.81,NNE,23,0.0,0.0,85,0.00,,,0.00,WUHU216HW,2013-09-08 06:51:00,
2013-09-07 23:56:00,58.1,53.6,29.81,NNE,23,0.0,0.0,85,0.00,,,0.00,WUHU216HW,2013-09-08 06:56:00,